Time,TemperatureF,DewpointF,PressureIn,WindDirection,WindDirectionDegrees,WindSpeedMPH,WindSpeedGustMPH,Humidity,HourlyPrecipIn,Conditions,Clouds,dailyrainin,SolarRadiationWatts/m^2,SoftwareType,DateUTC
2013-10-31 00:06:00,40.6,35.0,30.27,WSW,244,9.0,16.0,79,0.00,,,0.00,0,weatherlink.com 1.10,2013-10-31 04:06:00,
2013-10-31 00:21:00,41.1,35.0,30.27,West,266,14.0,16.0,79,0.00,,,0.00,0,weatherlink.com 1.10,2013-10-31 04:21:00,
2013-10-31 00:36:00,41.0,35.0,30.27,WSW,257,11.0,17.0,79,0.00,,,0.00,0,weatherlink.com 1.10,2013-10-31 04:36:00,
2013-10-31 00:51:00,40.6,35.0,30.27,West,269,6.0,16.0,79,0.00,,,0.00,0,weatherlink.com 1.10,2013-10-31 04:51:00,
2013-10-31 01:21:00,39.5,34.0,30.27,West,259,10.0,13.0,81,0.00,,,0.00,0,weatherlink.com 1.10,2013-10-31 05:21:00,
2013-10-31 01:36:00,39.2,34.0,30.26,WSW,257,9.0,13.0,82,0.00,,,0.00,0,weatherlink.com 1.10,2013-10-31 05:36:00,
2013-10-31 01:51:00,39.1,34.0,30.26,WSW,252,8.0,14.0,82,0.00,,,0.00,0,weatherlink.com 1.10,2013-10-31 05:51:00,
2013-10-31 02:06:00,40.0,35.0,30.26,WSW,257,11.0,16.0,81,0.00,,,0.00,0,weatherlink.com 1.10,2013-10-31 06:06:00,
2013-10-31 02:21:00,40.2,35.0,30.25,West,267,14.0,16.0,82,0.00,,,0.00,0,weatherlink.com 1.10,2013-10-31 06:21:00,
2013-10-31 02:36:00,40.1,35.0,30.25,West,259,8.0,12.0,82,0.00,,,0.00,0,weatherlink.com 1.10,2013-10-31 06:36:00,
2013-10-31 02:51:00,40.3,35.0,30.25,West,271,6.0,11.0,82,0.00,,,0.00,0,weatherlink.com 1.10,2013-10-31 06:51:00,
2013-10-31 03:06:00,39.9,35.0,30.25,West,269,0.0,8.0,82,0.00,,,0.00,0,weatherlink.com 1.10,2013-10-31 07:06:00,
2013-10-31 03:21:00,40.0,35.0,30.24,West,269,0.0,0.0,83,0.00,,,0.00,0,weatherlink.com 1.10,2013-10-31 07:21:00,
2013-10-31 03:36:00,40.1,35.0,30.25,West,269,0.0,0.0,83,0.00,,,0.00,0,weatherlink.com 1.10,2013-10-31 07:36:00,
2013-10-31 03:51:00,40.4,35.0,30.25,West,269,0.0,0.0,82,0.00,,,0.00,0,weatherlink.com 1.10,2013-10-31 07:51:00,
2013-10-31 04:06:00,40.5,35.0,30.24,West,269,0.0,0.0,82,0.00,,,0.00,0,weatherlink.com 1.10,2013-10-31 08:06:00,
2013-10-31 04:36:00,40.9,35.0,30.23,West,269,0.0,0.0,80,0.00,,,0.00,0,weatherlink.com 1.10,2013-10-31 08:36:00,
2013-10-31 04:51:00,41.3,36.0,30.23,West,269,0.0,0.0,80,0.00,,,0.00,0,weatherlink.com 1.10,2013-10-31 08:51:00,
2013-10-31 05:07:00,41.2,36.0,30.23,West,269,0.0,0.0,80,0.00,,,0.00,0,weatherlink.com 1.10,2013-10-31 09:07:00,
2013-10-31 05:21:00,40.2,35.0,30.24,West,269,0.0,0.0,82,0.00,,,0.00,0,weatherlink.com 1.10,2013-10-31 09:21:00,
2013-10-31 05:36:00,40.3,35.0,30.24,West,269,0.0,0.0,82,0.00,,,0.00,0,weatherlink.com 1.10,2013-10-31 09:36:00,
2013-10-31 05:51:00,40.3,35.0,30.24,West,269,0.0,0.0,82,0.00,,,0.00,0,weatherlink.com 1.10,2013-10-31 09:51:00,
2013-10-31 06:06:00,39.5,35.0,30.24,West,269,0.0,1.0,83,0.00,,,0.00,0,weatherlink.com 1.10,2013-10-31 10:06:00,
2013-10-31 06:21:00,38.5,34.0,30.22,West,269,0.0,0.0,85,0.00,,,0.00,0,weatherlink.com 1.10,2013-10-31 10:21:00,
2013-10-31 06:36:00,37.9,34.0,30.23,West,269,0.0,0.0,86,0.00,,,0.00,0,weatherlink.com 1.10,2013-10-31 10:36:00,
2013-10-31 06:51:00,38.3,35.0,30.23,West,269,0.0,0.0,87,0.00,,,0.00,0,weatherlink.com 1.10,2013-10-31 10:51:00,
2013-10-31 07:06:00,39.0,35.0,30.23,West,269,0.0,1.0,86,0.00,,,0.00,0,weatherlink.com 1.10,2013-10-31 11:06:00,
2013-10-31 07:21:00,38.8,35.0,30.23,ESE,113,0.0,1.0,87,0.00,,,0.00,5,weatherlink.com 1.10,2013-10-31 11:21:00,
2013-10-31 07:37:00,38.6,35.0,30.23,ESE,113,0.0,0.0,87,0.00,,,0.00,21,weatherlink.com 1.10,2013-10-31 11:37:00,
2013-10-31 07:52:00,40.2,36.0,30.23,SSE,150,0.0,2.0,84,0.00,,,0.00,28,weatherlink.com 1.10,2013-10-31 11:52:00,
2013-10-31 08:07:00,40.0,36.0,30.23,SSW,201,0.0,0.0,84,0.00,,,0.00,67,weatherlink.com 1.10,2013-10-31 12:07:00,
2013-10-31 08:22:00,40.6,36.0,30.23,South,182,0.0,7.0,84,0.00,,,0.00,74,weatherlink.com 1.10,2013-10-31 12:22:00,
2013-10-31 08:37:00,41.1,36.0,30.24,South,182,0.0,0.0,82,0.00,,,0.00,91,weatherlink.com 1.10,2013-10-31 12:37:00,
2013-10-31 08:52:00,40.2,36.0,30.24,South,184,0.0,0.0,84,0.00,,,0.00,104,weatherlink.com 1.10,2013-10-31 12:52:00,
2013-10-31 09:07:00,41.8,37.0,30.23,SSW,200,0.0,1.0,83,0.00,,,0.00,165,weatherlink.com 1.10,2013-10-31 13:07:00,
2013-10-31 09:22:00,42.9,38.0,30.22,SSE,167,0.0,2.0,84,0.00,,,0.00,167,weatherlink.com 1.10,2013-10-31 13:22:00,
2013-10-31 09:37:00,42.9,38.0,30.22,SW,224,0.0,7.0,84,0.00,,,0.00,63,weatherlink.com 1.10,2013-10-31 13:37:00,
2013-10-31 09:52:00,42.5,39.0,30.22,South,190,2.0,9.0,88,0.00,,,0.00,65,weatherlink.com 1.10,2013-10-31 13:52:00,
2013-10-31 10:07:00,41.9,40.0,30.21,SSW,192,0.0,2.0,91,0.00,,,0.00,67,weatherlink.com 1.10,2013-10-31 14:07:00,
2013-10-31 10:22:00,42.2,40.0,30.21,SSW,213,0.0,6.0,90,0.00,,,0.00,54,weatherlink.com 1.10,2013-10-31 14:22:00,
2013-10-31 10:37:00,42.8,41.0,30.20,SSW,208,0.0,1.0,94,0.00,,,0.00,67,weatherlink.com 1.10,2013-10-31 14:37:00,
2013-10-31 10:52:00,43.1,42.0,30.19,SW,226,0.0,1.0,94,0.00,,,0.00,72,weatherlink.com 1.10,2013-10-31 14:52:00,
2013-10-31 11:07:00,43.1,42.0,30.19,SW,221,0.0,8.0,94,0.00,,,0.00,63,weatherlink.com 1.10,2013-10-31 15:07:00,
2013-10-31 11:22:00,42.7,41.0,30.18,SW,225,0.0,8.0,93,0.00,,,0.00,90,weatherlink.com 1.10,2013-10-31 15:22:00,
2013-10-31 11:37:00,43.2,42.0,30.18,SW,232,0.0,7.0,94,0.00,,,0.00,109,weatherlink.com 1.10,2013-10-31 15:37:00,
2013-10-31 11:52:00,43.9,42.0,30.16,WSW,254,0.0,7.0,91,0.00,,,0.00,137,weatherlink.com 1.10,2013-10-31 15:52:00,
2013-10-31 12:07:00,43.6,42.0,30.16,WSW,252,0.0,1.0,92,0.00,,,0.00,76,weatherlink.com 1.10,2013-10-31 16:07:00,
2013-10-31 12:22:00,43.0,40.0,30.15,WSW,252,0.0,1.0,90,0.00,,,0.00,83,weatherlink.com 1.10,2013-10-31 16:22:00,
2013-10-31 12:37:00,43.7,42.0,30.14,WSW,252,0.0,1.0,92,0.00,,,0.00,105,weatherlink.com 1.10,2013-10-31 16:37:00,
2013-10-31 12:52:00,43.8,42.0,30.13,SW,217,0.0,1.0,92,0.00,,,0.00,65,weatherlink.com 1.10,2013-10-31 16:52:00,
2013-10-31 13:08:00,44.4,43.0,30.12,SW,224,0.0,12.0,95,0.00,,,0.00,81,weatherlink.com 1.10,2013-10-31 17:08:00,
2013-10-31 13:22:00,44.3,43.0,30.11,SSW,203,0.0,7.0,95,0.00,,,0.00,54,weatherlink.com 1.10,2013-10-31 17:22:00,
2013-10-31 13:37:00,45.0,44.0,30.10,SW,227,11.0,14.0,96,0.00,,,0.00,30,weatherlink.com 1.10,2013-10-31 17:37:00,
2013-10-31 13:52:00,44.9,44.0,30.09,SW,220,7.0,13.0,96,0.00,,,0.00,32,weatherlink.com 1.10,2013-10-31 17:52:00,
2013-10-31 14:07:00,44.9,44.0,30.07,South,183,0.0,13.0,97,0.00,,,0.00,40,weatherlink.com 1.10,2013-10-31 18:07:00,
2013-10-31 14:23:00,45.5,45.0,30.06,SSW,211,0.0,12.0,97,0.00,,,0.00,47,weatherlink.com 1.10,2013-10-31 18:23:00,
2013-10-31 14:38:00,45.9,45.0,30.05,SSW,209,0.0,16.0,97,0.00,,,0.00,72,weatherlink.com 1.10,2013-10-31 18:38:00,
2013-10-31 14:53:00,46.2,45.0,30.03,South,173,11.0,16.0,97,0.00,,,0.00,58,weatherlink.com 1.10,2013-10-31 18:53:00,
2013-10-31 15:08:00,46.3,46.0,30.03,SSW,211,7.0,15.0,97,0.01,,,0.01,30,weatherlink.com 1.10,2013-10-31 19:08:00,
2013-10-31 15:23:00,46.5,46.0,30.02,SSW,213,0.0,16.0,98,0.03,,,0.03,33,weatherlink.com 1.10,2013-10-31 19:23:00,
2013-10-31 15:38:00,47.5,47.0,30.02,SW,215,10.0,17.0,98,0.05,,,0.05,26,weatherlink.com 1.10,2013-10-31 19:38:00,
2013-10-31 15:53:00,48.3,48.0,30.02,SSW,202,0.0,17.0,98,0.06,,,0.06,33,weatherlink.com 1.10,2013-10-31 19:53:00,
2013-10-31 16:08:00,48.8,48.0,30.02,SSE,159,12.0,17.0,98,0.05,,,0.07,23,weatherlink.com 1.10,2013-10-31 20:08:00,
2013-10-31 16:23:00,49.5,49.0,30.02,WSW,253,13.0,18.0,98,0.05,,,0.08,16,weatherlink.com 1.10,2013-10-31 20:23:00,
2013-10-31 16:38:00,50.3,50.0,30.01,SW,236,10.0,17.0,98,0.04,,,0.09,16,weatherlink.com 1.10,2013-10-31 20:38:00,
2013-10-31 16:53:00,50.7,50.0,30.00,WSW,242,0.0,17.0,98,0.04,,,0.10,12,weatherlink.com 1.10,2013-10-31 20:53:00,
2013-10-31 17:08:00,50.5,50.0,29.99,SSW,209,14.0,17.0,97,0.04,,,0.11,5,weatherlink.com 1.10,2013-10-31 21:08:00,
2013-10-31 17:23:00,51.0,51.0,29.99,WSW,244,5.0,17.0,98,0.06,,,0.14,0,weatherlink.com 1.10,2013-10-31 21:23:00,
2013-10-31 17:38:00,51.6,51.0,29.98,South,186,9.0,18.0,98,0.08,,,0.17,0,weatherlink.com 1.10,2013-10-31 21:38:00,
2013-10-31 17:53:00,51.7,51.0,29.97,SW,225,0.0,16.0,97,0.09,,,0.19,0,weatherlink.com 1.10,2013-10-31 21:53:00,
2013-10-31 18:08:00,51.7,51.0,29.96,SW,221,10.0,17.0,97,0.08,,,0.19,0,weatherlink.com 1.10,2013-10-31 22:08:00,
2013-10-31 18:23:00,51.7,51.0,29.96,SSW,211,0.0,16.0,98,0.05,,,0.19,0,weatherlink.com 1.10,2013-10-31 22:23:00,
2013-10-31 18:38:00,52.1,52.0,29.95,SW,221,1.0,16.0,98,0.02,,,0.19,0,weatherlink.com 1.10,2013-10-31 22:38:00,
2013-10-31 18:53:00,52.5,52.0,29.95,SW,236,10.0,17.0,98,0.01,,,0.20,0,weatherlink.com 1.10,2013-10-31 22:53:00,
2013-10-31 19:08:00,53.2,53.0,29.94,SW,219,17.0,17.0,98,0.01,,,0.20,0,weatherlink.com 1.10,2013-10-31 23:08:00,
2013-10-31 19:23:00,53.6,53.0,29.93,WSW,246,16.0,18.0,98,0.03,,,0.22,0,weatherlink.com 1.10,2013-10-31 23:23:00,
2013-10-31 19:38:00,54.4,54.0,29.93,SW,214,17.0,18.0,98,0.04,,,0.23,0,weatherlink.com 1.10,2013-10-31 23:38:00,
2013-10-31 19:53:00,55.1,54.0,29.92,WSW,238,11.0,18.0,97,0.03,,,0.23,0,weatherlink.com 1.10,2013-10-31 23:53:00,
2013-10-31 20:08:00,54.8,54.0,29.90,SW,232,8.0,17.0,97,0.03,,,0.23,0,weatherlink.com 1.10,2013-11-01 00:08:00,
2013-10-31 20:23:00,55.1,54.0,29.90,West,270,17.0,34.0,97,0.02,,,0.24,0,weatherlink.com 1.10,2013-11-01 00:23:00,
2013-10-31 20:39:00,55.5,54.0,29.89,SSW,211,5.0,18.0,96,0.01,,,0.24,0,weatherlink.com 1.10,2013-11-01 00:39:00,
2013-10-31 20:54:00,55.5,54.0,29.88,WSW,250,9.0,17.0,96,0.01,,,0.24,0,weatherlink.com 1.10,2013-11-01 00:54:00,
2013-10-31 21:09:00,55.9,55.0,29.87,WSW,244,17.0,17.0,96,0.01,,,0.24,0,weatherlink.com 1.10,2013-11-01 01:09:00,
2013-10-31 21:24:00,56.3,55.0,29.85,West,267,12.0,32.0,95,0.00,,,0.24,0,weatherlink.com 1.10,2013-11-01 01:24:00,
2013-10-31 21:39:00,56.6,55.0,29.85,WSW,239,16.0,32.0,95,0.00,,,0.24,0,weatherlink.com 1.10,2013-11-01 01:39:00,
2013-10-31 21:54:00,57.0,55.0,29.84,West,271,15.0,38.0,94,0.00,,,0.24,0,weatherlink.com 1.10,2013-11-01 01:54:00,
2013-10-31 22:09:00,57.2,56.0,29.84,West,278,21.0,33.0,94,0.00,,,0.24,0,weatherlink.com 1.10,2013-11-01 02:09:00,
2013-10-31 22:24:00,57.3,56.0,29.83,West,281,16.0,34.0,94,0.00,,,0.24,0,weatherlink.com 1.10,2013-11-01 02:24:00,
2013-10-31 22:39:00,57.3,56.0,29.82,West,266,19.0,31.0,94,0.00,,,0.24,0,weatherlink.com 1.10,2013-11-01 02:39:00,
2013-10-31 22:54:00,57.4,55.0,29.82,SW,227,16.0,31.0,93,0.00,,,0.24,0,weatherlink.com 1.10,2013-11-01 02:54:00,
2013-10-31 23:09:00,57.7,56.0,29.81,WSW,240,34.0,34.0,93,0.00,,,0.24,0,weatherlink.com 1.10,2013-11-01 03:09:00,
2013-10-31 23:24:00,57.5,56.0,29.80,SW,225,13.0,30.0,93,0.00,,,0.24,0,weatherlink.com 1.10,2013-11-01 03:24:00,
2013-10-31 23:39:00,57.1,56.0,29.78,SW,231,17.0,18.0,95,0.01,,,0.25,0,weatherlink.com 1.10,2013-11-01 03:39:00,
2013-10-31 23:54:00,56.9,56.0,29.78,SSW,200,16.0,30.0,95,0.03,,,0.27,0,weatherlink.com 1.10,2013-11-01 03:54:00,